GSAT0215 (GALILEO 19)

Last updated on Nov. 13, 2019, 4:20 a.m. UTC

1 43055U 17079A   19315.91455134 -.00000021  00000-0  00000-0 0  9996
2 43055  56.4448 287.7898 0003756 266.1079  93.8220  1.70473661 11912
UTC
Height (km)
Latitude
Longitude
Inclination
Orbital Period
UTC large
Height (km)
Speed (km/s)
/
Latitude / Longitude
Inclination (degrees)
Orbital Period (minutes)
Azimuth
Elevation
Range (km)
Doppler Factor
iOS Compass Heading
iOS Angle

Next 30 passes for location: Hong Kong

Rise time Rise Azimuth (degrees) Set time Set Azimuth (degrees) Duration Max altitude (degrees)

No matching passes for this satellites